Location: Noordwijk
(52.2400°N, 4.4500°E)
Time: 11:43:09
(UTC+00:00)

TIGRISAT - Visible Passes

Search period start: 30 November 2022 00:00
Search period end: 10 December 2022 00:00
Orbit: 603 x 685 km, 97.7° (Epoch: 29 November)

Date Brightness Start Highest point End Pass type
(mag) Time Alt. Az. Time Alt. Az. Time Alt. Az.
30 Nov ? 03:33:19 10° ESE 03:36:16 24° ENE 03:36:16 24° ENE visible
30 Nov ? 05:08:59 10° S 05:13:12 49° W 05:13:55 44° WNW visible
30 Nov ? 16:54:30 13° NE 16:57:44 25° E 17:01:35 10° SSE visible
30 Nov ? 18:32:09 25° N 18:34:35 50° WNW 18:39:06 10° SW visible
01 Dec ? 03:57:15 10° SE 04:01:01 37° ENE 04:01:01 37° ENE visible
01 Dec ? 05:34:10 10° SSW 05:38:00 30° W 05:38:40 28° WNW visible
01 Dec ? 17:19:27 18° NE 17:22:34 40° E 17:26:57 10° SSE visible
01 Dec ? 18:57:07 23° NNW 18:59:05 32° WNW 19:03:13 10° SW visible
02 Dec ? 04:21:30 10° SSE 04:25:46 62° ENE 04:25:46 62° ENE visible
02 Dec ? 05:59:48 10° SW 06:02:52 19° W 06:03:26 18° W visible
02 Dec ? 17:44:24 23° NNE 17:47:18 66° ESE 17:51:58 10° S visible
02 Dec ? 19:22:04 19° NW 19:23:31 21° WNW 19:27:01 10° WSW visible
03 Dec ? 03:11:31 10° E 03:12:53 15° E 03:12:53 15° E visible
03 Dec ? 04:46:03 10° S 04:50:25 80° WSW 04:50:32 79° W visible
03 Dec ? 06:26:29 10° WSW 06:27:52 11° W 06:28:11 11° W visible
03 Dec ? 16:31:49 10° NE 16:34:49 17° E 16:37:47 10° SE visible
03 Dec ? 18:09:21 26° N 18:11:58 77° WNW 18:16:39 10° SSW visible
03 Dec ? 19:47:01 14° NW 19:47:51 14° NW 19:50:21 10° W visible
04 Dec ? 03:35:06 10° ESE 03:37:38 23° E 03:37:38 23° E visible
04 Dec ? 05:10:54 10° S 05:15:08 47° W 05:15:18 47° W visible
04 Dec ? 16:56:38 14° NE 16:59:43 26° E 17:03:39 10° SSE visible
04 Dec ? 18:34:18 27° N 18:36:33 48° WNW 18:41:02 10° SW visible
05 Dec ? 03:59:04 10° SE 04:02:24 37° E 04:02:24 37° E visible
05 Dec ? 05:36:06 10° SSW 05:39:56 29° W 05:40:04 29° W visible
05 Dec ? 17:21:33 19° NE 17:24:32 42° E 17:28:59 10° S visible
05 Dec ? 18:59:13 23° NNW 19:01:02 31° WNW 19:05:07 10° SW visible
06 Dec ? 04:23:21 10° SSE 04:27:11 59° ESE 04:27:11 59° ESE visible
06 Dec ? 06:01:47 10° SW 06:04:49 18° W 06:04:50 18° W visible
06 Dec ? 16:10:47 10° ENE 16:11:47 11° E 16:12:47 10° E visible
06 Dec ? 17:46:29 24° NNE 17:49:16 70° ESE 17:53:57 10° S visible
06 Dec ? 19:24:09 18° NW 19:25:26 21° WNW 19:28:53 10° WSW visible
07 Dec ? 03:13:14 10° E 03:14:18 14° E 03:14:18 14° E visible
07 Dec ? 04:47:55 10° S 04:51:57 70° SSW 04:51:57 70° SSW visible
07 Dec ? 06:28:40 10° W 06:29:37 11° W 06:29:37 11° W visible
07 Dec ? 16:33:44 10° NE 16:36:47 18° E 16:39:55 10° SE visible
07 Dec ? 18:11:24 27° N 18:13:55 74° WNW 18:18:35 10° SSW visible
07 Dec ? 19:49:04 14° NW 19:49:46 14° NW 19:52:08 10° W visible
08 Dec ? 03:36:53 10° ESE 03:39:05 22° E 03:39:05 22° E visible
08 Dec ? 05:12:48 10° S 05:16:44 44° WSW 05:16:44 44° WSW visible
08 Dec ? 16:58:39 15° NE 17:01:41 28° E 17:05:41 10° SSE visible
08 Dec ? 18:36:19 27° NNW 18:38:28 46° WNW 18:42:56 10° SW visible
09 Dec ? 04:00:53 10° SE 04:03:51 34° ESE 04:03:51 34° ESE visible
09 Dec ? 05:38:02 10° SSW 05:41:30 27° W 05:41:30 27° W visible
09 Dec ? 17:23:33 20° NE 17:26:29 44° E 17:30:57 10° S visible
09 Dec ? 19:01:13 23° NNW 19:02:57 30° WNW 19:06:59 10° WSW visible
